| time (UTC) | temp F | wind direction | speed MPH | gust MPH | rain 1hr in | rain 24hr in | rain mn in | humidity % | barometer mb |
| 20260505124919 | 62 | 224 | 4.0 | 12.0 | 0.00 | 0.02 | 0.01 | 73 | 1003.1 |
| 20260505124356 | 62 | 182 | 4.0 | 11.0 | 0.00 | 0.02 | 0.01 | 73 | 1003.0 |
| 20260505123852 | 62 | 200 | 5.0 | 12.0 | 0.00 | 0.02 | 0.01 | 73 | 1002.9 |
| 20260505123335 | 63 | 184 | 5.0 | 12.0 | 0.00 | 0.02 | 0.01 | 72 | 1002.8 |
| 20260505122840 | 63 | 186 | 5.0 | 11.0 | 0.00 | 0.02 | 0.01 | 72 | 1002.7 |
| 20260505122327 | 63 | 179 | 4.0 | 14.0 | 0.00 | 0.02 | 0.01 | 71 | 1002.7 |
| 20260505121831 | 63 | 173 | 6.0 | 14.0 | 0.00 | 0.02 | 0.01 | 71 | 1002.5 |
| 20260505121256 | 63 | 182 | 8.0 | 21.0 | 0.00 | 0.02 | 0.01 | 69 | 1002.4 |
| 20260505121004 | 64 | 190 | 9.0 | 21.0 | 0.00 | 0.02 | 0.01 | 68 | 1002.3 |
| 20260505120230 | 64 | 181 | 7.0 | 21.0 | 0.00 | 0.02 | 0.01 | 68 | 1002.3 |
| 20260505115716 | 64 | 215 | 4.0 | 8.0 | 0.00 | 0.02 | 0.01 | 67 | 1002.5 |
| 20260505115208 | 64 | 219 | 5.0 | 10.0 | 0.00 | 0.02 | 0.01 | 68 | 1002.4 |
| 20260505114648 | 64 | 173 | 5.0 | 10.0 | 0.00 | 0.02 | 0.01 | 68 | 1002.4 |
| 20260505114120 | 64 | 177 | 4.0 | 11.0 | 0.00 | 0.02 | 0.01 | 68 | 1002.3 |
| 20260505113617 | 64 | 177 | 3.0 | 11.0 | 0.00 | 0.02 | 0.01 | 68 | 1002.6 |
| 20260505113053 | 64 | 208 | 3.0 | 6.0 | 0.00 | 0.02 | 0.01 | 68 | 1002.5 |
| 20260505112554 | 64 | 192 | 3.0 | 7.0 | 0.00 | 0.02 | 0.01 | 68 | 1002.4 |
| 20260505112040 | 64 | 191 | 2.0 | 7.0 | 0.00 | 0.02 | 0.01 | 68 | 1002.4 |
| 20260505111804 | 64 | 162 | 2.0 | 7.0 | 0.00 | 0.02 | 0.01 | 68 | 1002.5 |
| 20260505111014 | 65 | 177 | 3.0 | 10.0 | 0.00 | 0.02 | 0.01 | 67 | 1002.5 |
| 20260505110506 | 65 | 194 | 4.0 | 11.0 | 0.00 | 0.02 | 0.01 | 68 | 1002.3 |
| 20260505101736 | 65 | 198 | 4.0 | 9.0 | 0.00 | 0.02 | 0.01 | 66 | 1001.8 |
| 20260505101224 | 65 | 190 | 4.0 | 11.0 | 0.00 | 0.02 | 0.01 | 66 | 1001.6 |
| 20260505100721 | 66 | 153 | 4.0 | 9.0 | 0.00 | 0.02 | 0.01 | 66 | 1001.5 |
| 20260505100151 | 66 | 189 | 4.0 | 11.0 | 0.00 | 0.02 | 0.01 | 66 | 1001.5 |
| 20260505095620 | 66 | 175 | 3.0 | 7.0 | 0.00 | 0.02 | 0.01 | 66 | 1001.4 |
| 20260505095118 | 66 | 172 | 3.0 | 9.0 | 0.00 | 0.02 | 0.01 | 66 | 1001.3 |
| 20260505094607 | 66 | 172 | 5.0 | 17.0 | 0.00 | 0.02 | 0.01 | 66 | 1001.2 |
| 20260505094111 | 66 | 185 | 4.0 | 17.0 | 0.00 | 0.02 | 0.01 | 66 | 1001.1 |
| 20260505093542 | 66 | 181 | 4.0 | 11.0 | 0.00 | 0.02 | 0.01 | 66 | 1001.0 |
| 20260505093042 | 66 | 190 | 4.0 | 11.0 | 0.00 | 0.02 | 0.01 | 66 | 1000.8 |
| 20260505092520 | 66 | 175 | 4.0 | 10.0 | 0.00 | 0.02 | 0.01 | 65 | 1001.0 |
| 20260505091954 | 66 | 184 | 5.0 | 12.0 | 0.00 | 0.02 | 0.01 | 65 | 1000.8 |
| 20260505091428 | 66 | 192 | 5.0 | 13.0 | 0.00 | 0.02 | 0.01 | 65 | 1001.0 |
| 20260505091415 | 66 | 220 | 4.0 | 13.0 | 0.00 | 0.02 | 0.01 | 65 | 1001.0 |
| 20260505090404 | 66 | 157 | 4.0 | 10.0 | 0.00 | 0.02 | 0.01 | 65 | 1001.1 |
| 20260505085906 | 66 | 187 | 5.0 | 13.0 | 0.00 | 0.02 | 0.01 | 65 | 1001.1 |
| 20260505085358 | 66 | 224 | 5.0 | 19.0 | 0.00 | 0.02 | 0.01 | 65 | 1001.2 |
| 20260505084859 | 66 | 194 | 5.0 | 19.0 | 0.00 | 0.02 | 0.01 | 65 | 1000.7 |
| 20260505084329 | 66 | 184 | 5.0 | 16.0 | 0.00 | 0.02 | 0.01 | 65 | 1001.0 |
| 20260505083829 | 66 | 174 | 6.0 | 15.0 | 0.00 | 0.02 | 0.01 | 66 | 1001.0 |
| 20260505083305 | 66 | 181 | 5.0 | 13.0 | 0.00 | 0.02 | 0.01 | 66 | 1001.1 |
| 20260505082808 | 66 | 261 | 5.0 | 14.0 | 0.00 | 0.02 | 0.01 | 67 | 1001.1 |
| 20260505082244 | 66 | 182 | 5.0 | 14.0 | 0.00 | 0.02 | 0.01 | 67 | 1001.1 |
| 20260505082012 | 66 | 194 | 5.0 | 11.0 | 0.00 | 0.02 | 0.01 | 67 | 1001.0 |
| 20260505081215 | 66 | 180 | 5.0 | 11.0 | 0.00 | 0.02 | 0.01 | 67 | 1000.8 |
| 20260505080716 | 66 | 175 | 4.0 | 7.0 | 0.00 | 0.02 | 0.01 | 68 | 1000.7 |
| 20260505080137 | 66 | 200 | 4.0 | 9.0 | 0.00 | 0.02 | 0.01 | 68 | 1000.6 |
| 20260505075624 | 66 | 177 | 4.0 | 9.0 | 0.00 | 0.02 | 0.01 | 67 | 1000.5 |
| 20260505075356 | 66 | 278 | 5.0 | 10.0 | 0.00 | 0.02 | 0.01 | 67 | 1000.7 |
| 20260505074606 | 66 | 188 | 5.0 | 10.0 | 0.00 | 0.02 | 0.01 | 67 | 1000.6 |
| 20260505074106 | 66 | 163 | 4.0 | 10.0 | 0.00 | 0.02 | 0.01 | 67 | 1000.6 |
| 20260505073804 | 66 | 181 | 4.0 | 11.0 | 0.00 | 0.02 | 0.01 | 67 | 1000.6 |
| 20260505073035 | 66 | 174 | 5.0 | 11.0 | 0.00 | 0.02 | 0.01 | 67 | 1000.6 |
| 20260505072507 | 67 | 165 | 7.0 | 20.0 | 0.00 | 0.02 | 0.01 | 66 | 1000.7 |
| 20260505071950 | 67 | 169 | 7.0 | 20.0 | 0.00 | 0.02 | 0.01 | 65 | 1000.6 |
| 20260505071453 | 67 | 211 | 6.0 | 17.0 | 0.00 | 0.02 | 0.01 | 65 | 1000.6 |
| 20260505070923 | 67 | 178 | 6.0 | 14.0 | 0.00 | 0.02 | 0.01 | 65 | 1000.5 |
| 20260505070646 | 67 | 202 | 6.0 | 14.0 | 0.00 | 0.02 | 0.01 | 65 | 1000.5 |
| 20260505065909 | 67 | 171 | 6.0 | 19.0 | 0.00 | 0.02 | 0.01 | 65 | 1000.5 |
| 20260505065410 | 67 | 171 | 6.0 | 19.0 | 0.00 | 0.02 | 0.01 | 66 | 1000.6 |
| 20260505065106 | 67 | 202 | 5.0 | 12.0 | 0.00 | 0.02 | 0.01 | 66 | 1000.7 |
| 20260505064321 | 67 | 180 | 6.0 | 15.0 | 0.00 | 0.02 | 0.01 | 67 | 1000.7 |
| 20260505063823 | 67 | 184 | 6.0 | 15.0 | 0.00 | 0.02 | 0.01 | 67 | 1000.7 |
| 20260505063311 | 67 | 192 | 6.0 | 12.0 | 0.00 | 0.02 | 0.01 | 65 | 1001.0 |
| 20260505062816 | 67 | 194 | 6.0 | 13.0 | 0.00 | 0.02 | 0.01 | 64 | 1001.0 |
| 20260505062255 | 67 | 188 | 7.0 | 18.0 | 0.00 | 0.02 | 0.01 | 65 | 1001.2 |
| 20260505061757 | 67 | 180 | 6.0 | 18.0 | 0.00 | 0.02 | 0.01 | 65 | 1001.2 |
| 20260505061250 | 67 | 180 | 6.0 | 13.0 | 0.00 | 0.02 | 0.01 | 66 | 1001.2 |
| 20260505060752 | 67 | 185 | 7.0 | 17.0 | 0.00 | 0.02 | 0.01 | 66 | 1001.2 |
| 20260505060233 | 67 | 175 | 5.0 | 17.0 | 0.00 | 0.02 | 0.01 | 67 | 1001.4 |
| 20260505055738 | 66 | 188 | 6.0 | 11.0 | 0.00 | 0.02 | 0.01 | 67 | 1001.4 |
| 20260505055444 | 66 | 194 | 6.0 | 16.0 | 0.00 | 0.02 | 0.01 | 68 | 1001.4 |
| 20260505054715 | 66 | 196 | 6.0 | 16.0 | 0.00 | 0.02 | 0.01 | 68 | 1001.6 |
| 20260505054209 | 66 | 190 | 7.0 | 15.0 | 0.01 | 0.02 | 0.01 | 69 | 1001.5 |
| 20260505053703 | 65 | 195 | 6.0 | 15.0 | 0.01 | 0.02 | 0.01 | 69 | 1001.6 |
| 20260505053424 | 65 | 219 | 6.0 | 12.0 | 0.01 | 0.02 | 0.01 | 70 | 1001.6 |
| 20260505052701 | 65 | 160 | 7.0 | 13.0 | 0.01 | 0.02 | 0.01 | 71 | 1001.6 |
| 20260505052150 | 65 | 174 | 6.0 | 13.0 | 0.01 | 0.02 | 0.01 | 71 | 1001.7 |
| 20260505051652 | 64 | 191 | 5.0 | 11.0 | 0.01 | 0.02 | 0.01 | 73 | 1001.8 |
| 20260505051121 | 64 | 169 | 5.0 | 11.0 | 0.01 | 0.02 | 0.01 | 73 | 1001.9 |
| 20260505050551 | 64 | 186 | 6.0 | 13.0 | 0.01 | 0.02 | 0.01 | 73 | 1001.8 |
| 20260505040827 | 66 | 186 | 7.0 | 13.0 | 0.00 | 0.01 | 0.00 | 67 | 1002.1 |
| 20260505040327 | 66 | 184 | 7.0 | 14.0 | 0.00 | 0.01 | 0.00 | 67 | 1002.2 |
| 20260505035826 | 66 | 192 | 7.0 | 14.0 | 0.00 | 0.01 | 0.01 | 66 | 1002.3 |
| 20260505035259 | 66 | 171 | 7.0 | 13.0 | 0.00 | 0.01 | 0.01 | 66 | 1002.4 |
| 20260505034757 | 66 | 184 | 6.0 | 11.0 | 0.00 | 0.01 | 0.01 | 66 | 1002.5 |
| 20260505034255 | 66 | 199 | 6.0 | 12.0 | 0.00 | 0.01 | 0.01 | 66 | 1002.4 |
| 20260505033729 | 67 | 167 | 7.0 | 15.0 | 0.00 | 0.01 | 0.01 | 66 | 1002.5 |
| 20260505033157 | 67 | 190 | 7.0 | 15.0 | 0.00 | 0.01 | 0.01 | 66 | 1002.5 |
| 20260505032855 | 67 | 192 | 7.0 | 12.0 | 0.00 | 0.01 | 0.01 | 65 | 1002.5 |
| 20260505032326 | 67 | 184 | 7.0 | 14.0 | 0.00 | 0.01 | 0.01 | 65 | 1002.5 |
| 20260505031534 | 67 | 167 | 6.0 | 14.0 | 0.00 | 0.01 | 0.01 | 66 | 1002.5 |
| 20260505030955 | 67 | 158 | 7.0 | 13.0 | 0.00 | 0.01 | 0.01 | 65 | 1002.4 |
| 20260505030427 | 67 | 173 | 7.0 | 11.0 | 0.00 | 0.01 | 0.01 | 65 | 1002.4 |
| 20260505025854 | 67 | 172 | 6.0 | 14.0 | 0.00 | 0.01 | 0.01 | 65 | 1002.4 |
| 20260505025325 | 67 | 171 | 5.0 | 12.0 | 0.00 | 0.01 | 0.01 | 65 | 1002.4 |
| 20260505025050 | 67 | 174 | 5.0 | 12.0 | 0.00 | 0.01 | 0.01 | 64 | 1002.4 |
| 20260505024325 | 67 | 188 | 5.0 | 11.0 | 0.00 | 0.01 | 0.01 | 64 | 1002.4 |
| 20260505024021 | 67 | 178 | 4.0 | 11.0 | 0.00 | 0.01 | 0.01 | 63 | 1002.4 |
| 20260505023227 | 67 | 180 | 6.0 | 16.0 | 0.00 | 0.01 | 0.01 | 62 | 1002.5 |
| 20260505022730 | 67 | 200 | 6.0 | 16.0 | 0.00 | 0.01 | 0.01 | 62 | 1002.4 |
| 20260505022227 | 67 | 197 | 5.0 | 10.0 | 0.00 | 0.01 | 0.01 | 62 | 1002.4 |
| 20260505022137 | 67 | 175 | 6.0 | 13.0 | 0.00 | 0.01 | 0.01 | 62 | 1002.6 |
| 20260505021129 | 67 | 180 | 6.0 | 13.0 | 0.00 | 0.01 | 0.01 | 62 | 1002.6 |
| 20260505020826 | 67 | 190 | 6.0 | 13.0 | 0.00 | 0.01 | 0.01 | 61 | 1002.7 |
| 20260505020045 | 67 | 196 | 6.0 | 13.0 | 0.00 | 0.01 | 0.01 | 62 | 1002.6 |
| 20260505015513 | 68 | 169 | 6.0 | 12.0 | 0.00 | 0.01 | 0.01 | 62 | 1002.7 |
| 20260505015007 | 68 | 176 | 5.0 | 10.0 | 0.00 | 0.01 | 0.01 | 62 | 1002.7 |
| 20260505014509 | 68 | 168 | 5.0 | 13.0 | 0.00 | 0.01 | 0.01 | 61 | 1002.6 |
| 20260505014007 | 68 | 198 | 4.0 | 13.0 | 0.00 | 0.01 | 0.01 | 61 | 1002.7 |
| 20260505013507 | 68 | 184 | 4.0 | 9.0 | 0.00 | 0.01 | 0.01 | 61 | 1002.7 |
| 20260505012951 | 68 | 167 | 3.0 | 8.0 | 0.00 | 0.01 | 0.01 | 61 | 1002.6 |
| 20260505012431 | 68 | 180 | 4.0 | 9.0 | 0.00 | 0.01 | 0.01 | 61 | 1002.5 |
| 20260505011901 | 68 | 184 | 4.0 | 9.0 | 0.00 | 0.01 | 0.01 | 61 | 1002.3 |
| 20260505011320 | 68 | 196 | 4.0 | 7.0 | 0.00 | 0.01 | 0.01 | 60 | 1002.2 |
| 20260505010801 | 69 | 197 | 4.0 | 7.0 | 0.00 | 0.01 | 0.01 | 60 | 1002.3 |
| 20260505010250 | 69 | 183 | 4.0 | 9.0 | 0.00 | 0.01 | 0.01 | 60 | 1002.3 |
| 20260505005751 | 69 | 182 | 4.0 | 9.0 | 0.00 | 0.01 | 0.01 | 60 | 1002.2 |
| 20260505005229 | 69 | 182 | 4.0 | 7.0 | 0.00 | 0.01 | 0.01 | 60 | 1002.1 |
| 20260505004913 | 69 | 167 | 3.0 | 7.0 | 0.00 | 0.01 | 0.01 | 60 | 1002.1 |
| 20260505004149 | 69 | 183 | 3.0 | 7.0 | 0.00 | 0.01 | 0.01 | 60 | 1002.0 |
| 20260505003649 | 69 | 182 | 3.0 | 7.0 | 0.00 | 0.01 | 0.01 | 60 | 1002.0 |
| 20260505003147 | 69 | 171 | 3.0 | 7.0 | 0.00 | 0.01 | 0.01 | 60 | 1002.0 |
| 20260505002645 | 69 | 182 | 3.0 | 7.0 | 0.00 | 0.01 | 0.01 | 60 | 1002.0 |
| 20260505002139 | 69 | 202 | 3.0 | 13.0 | 0.00 | 0.01 | 0.01 | 60 | 1001.9 |
| 20260505001619 | 69 | 190 | 4.0 | 13.0 | 0.00 | 0.01 | 0.01 | 60 | 1001.9 |
| 20260505001344 | 69 | 194 | 5.0 | 11.0 | 0.00 | 0.01 | 0.01 | 61 | 1001.8 |
| 20260505000758 | 69 | 182 | 5.0 | 11.0 | 0.00 | 0.01 | 0.01 | 61 | 1001.7 |
| 20260505000015 | 70 | 169 | 6.0 | 11.0 | 0.00 | 0.01 | 0.01 | 61 | 1001.8 |
| 20260504235446 | 70 | 171 | 6.0 | 12.0 | 0.00 | 0.01 | 0.01 | 61 | 1001.7 |
| 20260504234945 | 70 | 182 | 6.0 | 12.0 | 0.00 | 0.01 | 0.01 | 61 | 1001.6 |
| 20260504234706 | 70 | 184 | 5.0 | 12.0 | 0.00 | 0.01 | 0.01 | 62 | 1001.6 |
| 20260504233917 | 69 | 197 | 4.0 | 12.0 | 0.00 | 0.01 | 0.01 | 63 | 1001.7 |
| 20260504233421 | 69 | 188 | 5.0 | 13.0 | 0.00 | 0.01 | 0.01 | 63 | 1001.5 |
| 20260504232853 | 69 | 169 | 5.0 | 13.0 | 0.00 | 0.01 | 0.01 | 64 | 1001.3 |
| 20260504232358 | 68 | 165 | 3.0 | 11.0 | 0.01 | 0.01 | 0.01 | 66 | 1001.2 |
| 20260504231829 | 68 | 193 | 4.0 | 11.0 | 0.01 | 0.01 | 0.01 | 67 | 1001.1 |
| 20260504231323 | 67 | 179 | 3.0 | 7.0 | 0.01 | 0.01 | 0.01 | 68 | 1001.4 |
| 20260504230759 | 67 | 186 | 3.0 | 7.0 | 0.01 | 0.01 | 0.01 | 69 | 1001.5 |
| 20260504230300 | 67 | 186 | 3.0 | 7.0 | 0.01 | 0.01 | 0.01 | 69 | 1001.6 |
| 20260504225740 | 67 | 186 | 3.0 | 9.0 | 0.01 | 0.01 | 0.01 | 69 | 1001.6 |
| 20260504225235 | 67 | 182 | 3.0 | 9.0 | 0.01 | 0.01 | 0.01 | 70 | 1001.8 |
| 20260504224933 | 67 | 189 | 3.0 | 10.0 | 0.01 | 0.01 | 0.01 | 71 | 1002.0 |
| 20260504224430 | 67 | 172 | 4.0 | 11.0 | 0.01 | 0.01 | 0.01 | 71 | 1002.0 |
| 20260504223659 | 67 | 184 | 8.0 | 23.0 | 0.01 | 0.01 | 0.01 | 69 | 1002.1 |
| 20260504223129 | 69 | 180 | 7.0 | 23.0 | 0.01 | 0.01 | 0.01 | 66 | 1002.5 |
| 20260504222629 | 71 | 209 | 7.0 | 17.0 | 0.00 | 0.00 | 0.00 | 58 | 1002.4 |
| 20260504222317 | 71 | 117 | 6.0 | 17.0 | 0.00 | 0.00 | 0.00 | 56 | 1002.2 |
| 20260504221559 | 71 | 184 | 6.0 | 13.0 | 0.00 | 0.00 | 0.00 | 56 | 1002.3 |
| 20260504221031 | 71 | 175 | 5.0 | 13.0 | 0.00 | 0.00 | 0.00 | 56 | 1002.4 |
| 20260504220513 | 71 | 176 | 5.0 | 13.0 | 0.00 | 0.00 | 0.00 | 55 | 1002.5 |
| 20260504220011 | 72 | 163 | 5.0 | 13.0 | 0.00 | 0.00 | 0.00 | 54 | 1002.6 |
| 20260504215442 | 72 | 178 | 5.0 | 15.0 | 0.00 | 0.00 | 0.00 | 55 | 1002.6 |
| 20260504214914 | 72 | 184 | 6.0 | 15.0 | 0.00 | 0.00 | 0.00 | 54 | 1002.6 |
| 20260504214415 | 72 | 160 | 7.0 | 13.0 | 0.00 | 0.00 | 0.00 | 53 | 1002.6 |
| 20260504213845 | 72 | 166 | 7.0 | 15.0 | 0.00 | 0.00 | 0.00 | 53 | 1002.4 |
| 20260504213345 | 72 | 198 | 6.0 | 15.0 | 0.00 | 0.00 | 0.00 | 52 | 1002.6 |
| 20260504212810 | 72 | 143 | 5.0 | 19.0 | 0.00 | 0.00 | 0.00 | 53 | 1002.6 |
| 20260504212315 | 72 | 169 | 6.0 | 19.0 | 0.00 | 0.00 | 0.00 | 51 | 1002.8 |
| 20260504211806 | 73 | 190 | 5.0 | 15.0 | 0.00 | 0.00 | 0.00 | 50 | 1002.9 |
| 20260504211311 | 73 | 242 | 4.0 | 13.0 | 0.00 | 0.00 | 0.00 | 50 | 1002.9 |
| 20260504210746 | 73 | 184 | 6.0 | 16.0 | 0.00 | 0.00 | 0.00 | 49 | 1003.0 |
| 20260504210443 | 73 | 165 | 7.0 | 16.0 | 0.00 | 0.00 | 0.00 | 49 | 1002.8 |
| 20260504205719 | 73 | 161 | 5.0 | 13.0 | 0.00 | 0.00 | 0.00 | 48 | 1002.9 |
| 20260504205143 | 73 | 198 | 3.0 | 9.0 | 0.00 | 0.00 | 0.00 | 48 | 1002.9 |
| 20260504204645 | 73 | 178 | 4.0 | 11.0 | 0.00 | 0.00 | 0.00 | 48 | 1003.0 |
| 20260504204603 | 73 | 181 | 5.0 | 13.0 | 0.00 | 0.00 | 0.00 | 48 | 1002.9 |
| 20260504203625 | 72 | 213 | 5.0 | 14.0 | 0.00 | 0.00 | 0.00 | 48 | 1002.9 |
| 20260504203059 | 72 | 173 | 4.0 | 14.0 | 0.00 | 0.00 | 0.00 | 47 | 1002.9 |
| 20260504202552 | 72 | 137 | 5.0 | 13.0 | 0.00 | 0.00 | 0.00 | 47 | 1003.0 |
| 20260504202029 | 72 | 150 | 5.0 | 14.0 | 0.00 | 0.00 | 0.00 | 47 | 1002.9 |
| 20260504201502 | 73 | 183 | 5.0 | 14.0 | 0.00 | 0.00 | 0.00 | 51 | 1003.0 |
| 20260504201155 | 72 | 211 | 5.0 | 12.0 | 0.00 | 0.00 | 0.00 | 49 | 1003.0 |
| 20260504200433 | 73 | 175 | 4.0 | 12.0 | 0.00 | 0.00 | 0.00 | 47 | 1003.2 |
| 20260504195924 | 73 | 202 | 4.0 | 10.0 | 0.00 | 0.00 | 0.00 | 47 | 1003.2 |
| 20260504195356 | 73 | 182 | 4.0 | 10.0 | 0.00 | 0.00 | 0.00 | 49 | 1003.4 |
| 20260504194859 | 73 | 190 | 4.0 | 10.0 | 0.00 | 0.00 | 0.00 | 47 | 1003.4 |
| 20260504194350 | 72 | 192 | 4.0 | 16.0 | 0.00 | 0.00 | 0.00 | 49 | 1003.4 |
| 20260504193840 | 72 | 185 | 5.0 | 16.0 | 0.00 | 0.00 | 0.00 | 49 | 1003.5 |
| 20260504193321 | 72 | 168 | 5.0 | 11.0 | 0.00 | 0.00 | 0.00 | 48 | 1003.7 |
| 20260504192801 | 72 | 201 | 5.0 | 13.0 | 0.00 | 0.00 | 0.00 | 49 | 1003.7 |
| 20260504192255 | 72 | 186 | 5.0 | 15.0 | 0.00 | 0.00 | 0.00 | 48 | 1003.8 |
| 20260504191744 | 72 | 161 | 5.0 | 15.0 | 0.00 | 0.00 | 0.00 | 47 | 1003.8 |
| 20260504191240 | 72 | 180 | 6.0 | 13.0 | 0.00 | 0.00 | 0.00 | 46 | 1003.8 |
| 20260504190704 | 72 | 175 | 5.0 | 13.0 | 0.00 | 0.00 | 0.00 | 46 | 1003.9 |
| 20260504190204 | 72 | 171 | 4.0 | 9.0 | 0.00 | 0.00 | 0.00 | 46 | 1004.0 |
| 20260504185706 | 72 | 173 | 6.0 | 13.0 | 0.00 | 0.00 | 0.00 | 44 | 1004.3 |
| 20260504185149 | 72 | 186 | 7.0 | 13.0 | 0.00 | 0.00 | 0.00 | 44 | 1004.0 |
| 20260504184637 | 72 | 202 | 6.0 | 13.0 | 0.00 | 0.00 | 0.00 | 44 | 1004.3 |
| 20260504184126 | 72 | 197 | 6.0 | 13.0 | 0.00 | 0.00 | 0.00 | 42 | 1004.4 |
| 20260504183612 | 71 | 165 | 7.0 | 13.0 | 0.00 | 0.00 | 0.00 | 42 | 1004.4 |
| 20260504183114 | 71 | 189 | 6.0 | 13.0 | 0.00 | 0.00 | 0.00 | 46 | 1004.3 |
| 20260504182807 | 71 | 173 | 6.0 | 16.0 | 0.00 | 0.00 | 0.00 | 46 | 1004.4 |
| 20260504182013 | 72 | 184 | 5.0 | 16.0 | 0.00 | 0.00 | 0.00 | 45 | 1004.5 |
| 20260504181710 | 72 | 223 | 4.0 | 12.0 | 0.00 | 0.00 | 0.00 | 42 | 1004.4 |
| 20260504180941 | 71 | 166 | 5.0 | 12.0 | 0.00 | 0.00 | 0.00 | 46 | 1004.6 |
| 20260504180442 | 71 | 173 | 6.0 | 12.0 | 0.00 | 0.00 | 0.00 | 45 | 1004.4 |
| 20260504180150 | 71 | 169 | 6.0 | 12.0 | 0.00 | 0.00 | 0.00 | 48 | 1004.4 |
| 20260504175434 | 70 | 174 | 7.0 | 14.0 | 0.00 | 0.00 | 0.00 | 47 | 1004.6 |
| 20260504174918 | 70 | 171 | 9.0 | 16.0 | 0.00 | 0.00 | 0.00 | 45 | 1004.5 |
| 20260504174422 | 71 | 157 | 6.0 | 16.0 | 0.00 | 0.00 | 0.00 | 46 | 1004.6 |
| 20260504173856 | 71 | 169 | 4.0 | 12.0 | 0.00 | 0.00 | 0.00 | 46 | 1004.8 |
| 20260504173607 | 71 | 190 | 4.0 | 12.0 | 0.00 | 0.00 | 0.00 | 48 | 1004.8 |
| 20260504173108 | 70 | 234 | 5.0 | 12.0 | 0.00 | 0.00 | 0.00 | 47 | 1004.7 |
| 20260504172308 | 71 | 165 | 3.0 | 12.0 | 0.00 | 0.00 | 0.00 | 46 | 1004.8 |
| 20260504171758 | 71 | 152 | 5.0 | 13.0 | 0.00 | 0.00 | 0.00 | 47 | 1004.8 |
| 20260504171258 | 70 | 188 | 7.0 | 13.0 | 0.00 | 0.00 | 0.00 | 45 | 1004.9 |
| 20260504171013 | 71 | 199 | 4.0 | 13.0 | 0.00 | 0.00 | 0.00 | 45 | 1005.0 |
| 20260504170501 | 71 | 185 | 4.0 | 10.0 | 0.00 | 0.00 | 0.00 | 45 | 1004.9 |
| 20260504160134 | 68 | 198 | 4.0 | 15.0 | 0.00 | 0.00 | 0.00 | 52 | 1005.6 |
| 20260504151145 | 65 | 173 | 5.0 | 12.0 | 0.00 | 0.00 | 0.00 | 54 | 1005.9 |
| 20260504150411 | 65 | 153 | 3.0 | 12.0 | 0.00 | 0.00 | 0.00 | 54 | 1005.8 |
| 20260504150129 | 65 | 140 | 4.0 | 13.0 | 0.00 | 0.00 | 0.00 | 56 | 1005.9 |
| 20260504141210 | 61 | 175 | 4.0 | 7.0 | 0.00 | 0.00 | 0.00 | 60 | 1005.9 |
| 20260504140926 | 61 | 201 | 3.0 | 12.0 | 0.00 | 0.00 | 0.00 | 61 | 1005.9 |
| 20260504140654 | 60 | 172 | 4.0 | 12.0 | 0.00 | 0.00 | 0.00 | 60 | 1005.9 |